Temp
21 22 21 21 24 23 23 25 24 26 27 27 26 27 28 27 27 28 18 19 21 21 20 21 21 21 20 20 20 20 20 19 19 19 19 19 19 19 19 19 19 19 19 19 19 18 18 18 18
21 21 21 20 24 24 25 24 25 26 27 26 26 26 26 26 22 20 19 18 20 20 21 21 21 21 20 20 20 20 20 19 19 19 19 19 19 19 19 19 19 19 19 19 18 18 18 18 17
21 21 23 23 22 24 24 24 25 26 26 27 27 25 25 24 20 20 19 19 20 20 20 20 21 20 20 20 20 19 19 19 19 19 19 19 18 19 19 19 19 19 18 18 18 18 17 17 17
21 21 22 22 22 22 24 25 25 26 28 27 26 26 23 21 21 20 19 19 20 20 20 20 20 20 20 20 19 19 19 19 19 18 18 18 18 19 19 18 18 19 18 18 18 17 17 17 17
20 21 22 22 22 22 24 24 25 26 26 27 26 25 23 20 19 19 19 19 20 20 20 20 20 20 20 19 19 20 20 19 18 18 18 19 19 19 18 18 18 18 18 18 17 17 17 17 17
21 21 21 22 22 23 24 25 25 25 25 25 26 24 22 18 19 19 19 20 20 20 20 20 20 20 20 19 19 20 19 18 18 19 18 19 19 19 18 18 18 18 18 18 17 17 17 16 16
21 21 21 21 21 23 24 24 24 24 24 24 23 25 21 20 18 19 19 19 19 20 20 20 20 19 19 19 19 19 18 18 18 19 19 19 18 18 18 18 18 18 18 17 17 16 16 16 16
19 21 19 20 22 22 25 25 24 24 24 23 23 25 24 21 18 19 18 18 19 19 19 20 20 19 19 19 19 18 18 18 18 18 19 19 19 18 18 17 17 17 17 17 16 16 16 15 15
19 20 19 20 21 23 23 23 24 23 24 23 24 23 22 19 18 18 18 18 18 19 19 19 19 19 18 19 18 18 18 18 18 18 19 18 17 17 17 17 17 17 17 16 16 15 15 15 15
19 19 19 20 21 22 22 22 23 23 24 24 23 20 19 19 18 19 19 19 19 18 18 19 18 18 18 18 18 18 18 18 18 18 18 17 16 17 17 17 17 17 17 16 15 17 17 17 15
18 19 19 21 21 21 21 22 23 23 22 23 24 23 19 19 19 19 19 20 19 18 19 18 18 18 18 18 18 18 18 18 18 18 17 17 16 17 17 17 17 16 16 16 17 17 17 16 16
19 19 19 20 20 20 20 22 22 22 23 24 24 23 20 20 20 19 19 20 19 18 18 18 18 18 17 17 18 18 18 18 18 17 17 17 17 17 17 17 17 17 17 17 17 17 17 17 16
18 19 19 19 18 18 19 19 21 21 22 23 21 22 20 20 19 19 19 19 19 18 17 17 18 18 17 18 18 18 18 18 18 17 17 17 17 17 17 17 17 17 17 17 17 17 17 16 16
18 18 18 18 19 19 19 20 20 22 21 21 21 22 22 20 20 19 19 19 19 18 17 17 17 18 18 18 18 18 18 17 17 17 18 17 17 17 17 17 17 17 17 17 17 17 17 16 16
18 18 18 19 20 19 19 20 20 21 20 21 21 20 21 20 20 20 19 19 18 18 18 17 17 17 17 18 18 17 17 17 17 18 17 17 17 17 18 18 17 17 17 17 17 16 16 16 16
18 17 18 20 18 20 20 19 20 21 20 21 21 20 20 20 20 20 19 19 18 17 17 17 17 17 17 18 18 18 17 17 18 18 17 18 17 17 18 18 17 17 17 17 17 16 16 16 16
16 18 17 17 18 19 19 19 20 20 20 19 21 20 20 20 19 19 19 19 18 18 17 17 17 17 17 17 17 18 17 17 18 17 17 18 17 17 18 18 17 17 17 17 17 16 16 16 16
17 17 17 17 18 18 18 18 19 19 18 19 19 20 19 19 21 19 19 19 18 17 17 16 17 17 17 17 18 18 17 17 17 17 17 17 17 17 17 17 17 17 17 17 16 17 16 16 15
17 16 16 18 18 17 18 18 18 19 18 18 19 19 19 19 20 19 18 18 18 17 17 17 17 17 16 17 17 17 17 16 16 17 17 16 17 17 17 17 17 17 17 17 16 16 16 15 15
17 17 17 17 18 17 17 17 17 18 17 17 17 17 17 17 18 18 18 18 18 17 17 17 17 18 17 16 16 16 16 16 17 16 16 16 16 16 17 17 17 17 17 16 16 16 15 15 14
18 17 17 16 16 16 16 17 17 17 16 17 17 15 16 15 16 17 17 18 17 17 17 16 17 17 16 20 17 16 15 14 14 14 14 14 15 15 15 16 17 17 16 17 16 16 16 15 14
16 17 17 16 16 16 16 15 16 16 16 16 16 16 15 15 15 15 16 18 17 17 16 17 18 17 17 18 18 18 15 13 12 13 12 13 13 12 12 14 16 17 16 16 16 16 16 16 14
18 17 16 15 15 15 15 14 16 15 14 13 15 16 16 16 16 16 16 17 18 17 16 17 17 17 17 17 18 15 14 12 10 9 8 10 11 11 11 11 14 15 16 16 16 16 15 15 15
17 16 15 14 14 16 14 13 16 14 13 13 15 15 15 16 17 17 16 17 17 16 16 16 16 16 15 15 14 14 12 11 9 9 9 10 11 11 11 12 13 14 15 16 16 15 15 15 15
16 15 15 17 15 16 15 15 15 12 14 14 14 14 14 14 15 16 17 17 16 16 16 15 15 14 14 14 13 13 12 12 12 12 10 11 10 9 9 11 12 13 15 15 15 15 15 14 14
15 14 14 14 14 15 15 15 14 13 14 15 14 13 13 13 13 14 16 16 16 15 15 15 14 14 14 13 13 12 13 13 12 12 12 11 10 10 11 11 13 13 14 14 14 14 14 13 13
16 15 14 13 12 14 14 16 13 13 14 14 14 13 12 12 12 12 13 15 15 15 15 14 14 14 14 14 14 13 13 14 12 13 12 12 11 11 10 11 12 12 11 13 13 13 12 12 11
16 14 15 13 13 15 16 15 15 12 12 13 13 12 12 12 12 11 11 12 13 14 14 14 14 14 15 13 13 13 13 13 12 12 12 11 10 10 10 11 11 12 11 12 12 11 11 11 10
16 16 15 14 14 15 15 16 15 13 12 13 13 13 11 11 11 11 11 10 10 10 11 12 13 12 13 12 13 13 12 12 12 11 11 10 11 11 11 11 11 11 11 11 11 11 10 10 9
15 15 14 15 15 14 14 16 14 13 12 13 13 13 12 11 11 11 11 11 10 9 9 9 10 11 11 11 11 11 11 11 11 11 11 11 11 10 10 10 10 10 10 10 10 10 9 9 8
Height
792 792 792 793 809 811 816 807 799 793 787 779 778 780 778 776 784 793 783 783 785 789 795 798 801 805 808 812 815 817 820 822 824 825 827 828 829 830 832 832 833 833 833 833 834 834 834 835 835
791 793 792 798 812 820 811 799 797 789 780 776 777 777 779 780 781 785 786 784 788 791 796 800 801 804 808 811 815 818 820 823 825 827 828 829 830 831 832 833 835 835 836 835 836 836 837 837 837
791 792 794 800 810 812 809 795 791 784 778 776 777 776 778 781 782 783 783 785 789 795 798 802 803 805 808 811 814 818 820 823 825 828 829 830 831 832 833 835 836 837 838 838 838 839 839 839 839
790 792 796 806 810 802 797 788 786 783 775 773 775 780 780 781 781 782 783 786 791 795 800 803 805 807 809 812 814 817 821 823 826 828 830 831 832 833 834 835 836 837 839 840 841 842 841 841 841
790 793 804 807 805 798 788 785 783 783 779 776 776 781 783 782 783 783 785 788 791 795 799 804 806 808 810 813 815 819 822 824 826 829 831 832 835 835 836 837 839 840 841 841 841 842 843 843 843
794 794 807 807 800 790 784 779 780 782 779 776 778 781 785 783 786 786 788 790 793 796 799 804 807 810 812 814 817 819 822 824 827 830 832 834 836 838 838 840 841 843 845 844 845 844 844 844 845
795 799 803 803 804 794 785 777 780 783 782 780 778 783 785 785 786 788 791 792 795 798 801 804 807 810 812 815 818 819 823 824 828 831 832 835 837 838 840 842 843 845 846 847 847 846 847 846 846
794 797 808 803 801 798 781 778 779 780 784 779 777 779 781 779 786 789 792 795 795 799 801 804 808 811 813 815 818 821 823 825 828 830 833 834 837 840 841 843 845 845 848 849 850 849 849 849 848
794 804 811 803 799 792 782 786 779 779 779 779 775 776 778 779 784 791 794 796 795 798 800 802 806 809 813 816 819 822 824 826 828 831 834 836 838 841 842 845 847 846 848 850 851 851 851 852 852
798 807 805 796 791 791 787 787 783 783 781 778 777 776 776 776 781 787 790 792 796 796 798 801 804 808 811 816 819 821 825 827 830 832 834 837 839 841 843 846 848 848 850 851 852 853 853 853 855
803 805 799 793 789 788 788 785 780 781 784 778 776 774 779 781 783 782 785 788 793 796 796 799 802 806 810 814 817 819 823 826 829 831 834 837 838 841 844 846 848 850 851 852 852 855 856 856 857
804 798 798 793 789 789 788 782 781 777 776 771 769 771 775 778 780 778 781 787 792 795 797 797 800 804 808 812 815 817 821 825 828 831 833 836 838 841 844 846 848 849 851 852 853 856 858 858 859
802 798 793 790 789 789 784 785 779 777 772 768 769 770 771 772 772 775 778 783 787 790 792 795 797 801 806 810 814 816 820 825 827 830 833 835 838 841 845 846 850 850 852 854 854 856 860 862 863
799 797 793 787 784 784 783 779 779 771 768 768 768 766 764 766 769 774 778 779 782 783 787 793 794 796 801 807 812 815 820 824 827 829 832 834 837 840 844 847 850 852 854 856 858 857 860 862 865
798 798 790 785 782 782 780 780 779 770 768 768 765 764 760 761 766 767 769 771 773 778 786 790 796 798 800 801 809 814 819 823 825 829 833 834 837 839 842 846 850 852 855 858 859 860 861 861 865
800 801 801 783 784 778 779 784 772 766 769 766 764 763 761 758 759 762 767 770 774 776 781 786 792 796 799 796 804 813 818 821 824 828 831 834 838 839 842 844 848 851 856 859 861 862 862 863 865
809 807 806 796 783 783 781 781 769 766 768 768 761 761 760 756 757 759 763 766 770 775 778 784 789 793 797 799 800 809 816 820 823 827 831 834 838 840 843 845 847 851 856 860 862 863 863 864 865
810 810 805 801 785 783 782 779 770 764 766 766 763 757 759 757 752 755 757 760 765 770 776 783 787 791 795 801 800 806 813 818 822 825 829 834 836 839 842 845 848 851 854 858 861 862 864 865 866
807 809 804 790 782 788 781 776 772 766 766 764 762 758 758 757 753 755 756 758 761 765 772 778 782 786 792 797 798 804 808 814 819 823 827 833 837 839 841 843 846 850 853 856 860 861 864 865 866
801 802 797 787 783 787 784 776 772 771 767 767 765 763 761 759 753 753 753 756 757 760 765 773 777 782 789 794 798 803 807 812 816 821 826 831 836 840 840 842 846 849 851 854 857 860 862 863 866
795 800 796 797 789 789 783 778 777 773 771 769 766 765 761 759 754 750 751 751 755 758 761 767 776 780 784 784 794 800 806 810 815 819 823 828 835 840 843 844 847 849 850 853 856 858 860 862 864
803 790 793 794 794 794 791 795 783 778 772 770 766 763 759 754 752 749 748 748 749 752 759 764 769 776 780 785 788 795 799 804 809 812 816 821 827 835 840 845 848 849 849 851 853 857 858 860 861
793 788 793 795 799 796 798 800 782 783 782 780 768 762 756 751 748 745 744 744 744 751 753 759 766 773 776 781 785 794 799 804 808 816 822 818 823 832 840 842 849 849 850 851 852 855 856 857 857
790 792 795 802 802 797 808 808 788 794 795 783 768 763 756 747 742 740 740 740 745 750 756 761 768 775 777 782 790 797 799 803 808 812 819 825 819 835 835 838 843 847 847 848 851 852 854 854 855
796 799 805 799 809 804 804 801 799 803 790 782 771 766 758 750 745 741 740 742 746 752 758 764 769 773 779 785 791 795 797 802 794 804 806 811 821 830 832 835 839 844 845 846 849 849 851 852 853
810 811 821 824 822 814 804 804 801 803 790 779 773 770 763 758 753 751 746 745 749 754 759 765 770 776 782 788 792 795 799 806 805 807 806 810 815 824 830 835 837 838 844 847 846 846 848 849 851
806 815 819 826 832 823 811 797 804 797 789 782 776 769 769 766 764 759 755 752 756 759 764 769 775 780 784 786 794 797 802 802 807 811 811 814 817 822 827 830 834 839 843 844 845 844 845 847 849
807 814 814 824 831 820 803 806 805 809 802 791 784 783 779 774 769 766 763 762 763 765 768 774 778 781 785 789 792 795 802 804 806 809 812 815 818 821 825 830 834 838 842 841 844 845 845 846 848
814 813 818 821 822 823 818 804 804 809 804 799 793 789 787 782 779 777 775 772 773 772 774 776 781 786 788 793 797 796 801 803 806 810 814 817 821 824 827 830 833 836 839 840 843 844 844 845 848
813 817 822 823 822 825 823 809 807 807 806 800 798 795 793 789 787 785 783 782 782 783 776 783 786 790 794 796 800 803 804 808 811 814 816 821 824 827 829 831 834 837 839 841 842 843 844 845 848
Wind_Speed
1 2 4 3 1 1 2 4 2 2 3 1 2 3 4 2 4 2 1 7 24 32 25 26 26 24 22 21 20 19 18 18 17 17 16 14 13 13 13 14 15 15 16 17 18 18 19 18 18
1 3 2 2 2 3 4 3 9 6 5 6 3 1 3 2 3 2 9 8 23 28 25 25 27 25 23 21 20 19 19 18 17 16 14 13 13 12 12 13 16 15 15 16 19 19 19 19 18
3 3 1 3 3 9 4 4 5 3 11 3 2 2 1 2 2 12 3 21 27 23 23 23 27 26 24 22 21 20 19 18 17 14 14 13 12 13 13 13 17 16 14 17 18 18 19 19 19
5 2 2 3 9 5 4 3 2 8 5 2 2 1 2 5 5 7 17 24 26 23 21 23 25 24 24 22 21 20 19 17 15 14 14 13 13 14 12 16 18 17 15 19 18 18 18 18 18
3 1 2 5 8 5 5 4 4 8 5 4 5 1 2 4 2 13 23 24 27 25 23 22 23 23 23 22 21 20 18 15 16 15 15 15 14 14 16 16 18 18 18 19 18 18 16 16 17
2 0 3 10 12 5 5 5 5 1 2 3 1 1 1 3 8 18 22 24 24 25 23 22 23 23 22 20 19 17 17 17 17 18 16 15 16 14 14 15 17 17 15 17 16 16 16 16 16
3 2 5 4 3 3 4 1 2 0 3 1 1 2 1 6 9 16 20 21 21 23 23 22 20 20 22 21 19 19 18 19 19 19 18 16 16 16 14 14 16 16 16 16 15 15 14 15 17
3 1 2 3 8 8 6 1 2 2 0 1 1 1 2 5 14 20 21 20 22 23 23 22 19 18 18 18 20 19 19 20 21 22 20 19 17 16 16 16 16 18 16 16 15 15 15 16 17
2 1 2 4 5 4 3 5 1 1 1 2 2 2 1 23 19 19 19 17 19 22 22 22 20 19 18 18 19 19 19 20 20 20 19 18 18 16 16 16 17 17 18 17 15 16 17 19 19
2 2 5 3 3 4 9 7 7 5 9 2 4 4 8 20 24 20 21 20 20 20 21 22 21 20 20 18 18 19 19 18 18 19 20 20 18 17 16 17 17 17 18 17 16 16 18 21 20
1 3 3 5 7 6 5 10 7 8 10 6 7 6 13 17 21 24 23 26 28 25 28 25 23 22 21 19 20 21 21 23 22 20 21 20 21 22 22 20 19 18 21 18 19 20 21 22 22
2 4 3 4 3 4 6 6 9 11 11 11 9 7 15 18 18 21 23 25 26 24 25 27 25 24 23 21 22 24 24 26 24 21 20 22 23 23 23 23 21 19 20 21 23 23 23 23 22
2 3 3 7 10 8 10 12 12 7 9 13 7 8 15 19 23 25 27 26 29 28 26 27 29 26 25 24 23 24 26 26 23 21 21 22 23 24 23 21 21 20 22 23 24 24 23 22 21
1 6 10 7 6 5 4 5 1 6 4 7 9 11 14 19 24 24 26 28 30 30 28 27 29 30 29 26 25 26 26 26 23 22 22 21 23 24 22 22 23 23 22 22 22 23 22 21 19
2 5 7 3 2 5 3 4 4 2 4 7 10 9 10 13 20 26 29 31 32 28 27 26 25 25 28 30 26 27 29 26 23 23 21 20 24 25 25 25 25 23 22 22 22 21 20 20 18
3 2 6 6 6 2 0 9 9 7 3 12 12 7 9 10 19 25 24 26 23 25 28 27 27 26 29 31 29 29 28 26 24 25 22 21 25 26 26 26 25 24 22 21 20 19 18 17 15
4 6 7 8 2 4 1 10 9 11 11 13 13 8 8 10 11 19 23 25 24 23 25 26 26 30 28 27 31 30 27 25 26 26 23 23 26 25 25 25 24 23 22 20 19 18 16 14 14
6 6 6 10 5 6 12 14 14 13 9 11 12 13 8 10 12 16 24 26 23 25 25 24 28 26 26 25 29 29 27 26 26 27 26 24 27 26 25 25 24 23 22 21 20 18 15 14 12
6 5 12 15 13 5 10 15 14 16 12 11 11 12 10 8 9 8 18 24 22 25 28 31 31 29 28 28 26 26 28 28 27 27 26 25 25 25 24 25 25 25 24 22 20 17 15 13 12
7 10 9 10 4 4 9 16 10 12 11 8 7 9 11 10 12 6 7 20 24 27 31 31 34 34 34 30 24 21 26 26 29 29 25 25 23 21 23 25 26 25 25 23 21 19 16 10 13
7 4 7 7 7 2 12 5 8 20 9 8 13 10 10 9 13 12 6 19 23 24 31 32 30 32 33 30 25 21 15 14 20 22 21 22 22 20 20 22 24 24 24 23 21 19 17 11 13
5 2 7 4 2 5 10 3 5 20 20 22 18 15 13 14 11 12 10 15 23 28 28 32 35 33 30 26 26 27 25 14 17 25 25 25 22 19 16 18 22 24 25 23 22 20 17 14 10
7 10 1 2 1 1 13 2 2 16 20 25 24 17 14 12 11 13 12 15 23 22 31 33 31 32 30 31 23 26 12 12 16 19 16 24 29 27 22 13 18 24 24 22 20 19 18 16 13
11 3 3 3 1 3 9 3 5 11 17 21 20 15 14 12 10 7 7 8 12 13 17 22 23 18 20 21 18 18 20 18 19 18 13 12 23 32 30 26 24 26 24 21 20 20 18 16 14
10 6 4 4 6 3 5 3 4 15 21 15 15 14 12 13 10 4 6 9 12 13 13 15 20 16 16 16 16 19 22 11 21 21 28 27 31 32 33 25 18 23 22 20 21 19 17 16 15
4 3 3 1 3 6 7 7 6 11 14 15 14 13 14 16 13 13 8 11 14 17 20 21 21 19 14 13 19 23 12 14 10 16 21 26 30 34 30 20 16 16 19 20 18 16 16 15 14
2 4 2 3 1 3 3 1 4 17 20 20 18 18 16 14 14 14 14 13 19 20 19 22 22 24 18 17 17 23 16 11 9 11 10 14 19 24 24 11 9 12 13 17 17 16 15 13 12
4 3 1 3 5 5 5 3 9 13 16 16 15 15 15 14 14 13 14 18 20 21 22 20 21 27 22 16 24 20 16 13 11 8 9 8 14 13 19 18 17 17 18 15 14 13 12 11 9
3 3 4 1 1 1 5 3 5 1 9 11 12 12 12 13 12 12 14 22 22 28 24 25 25 21 16 15 14 13 9 5 8 8 8 8 10 11 16 17 15 15 14 13 12 10 9 8 8
1 2 3 2 2 0 1 3 2 2 4 6 7 9 11 10 11 10 16 20 23 22 26 26 26 22 21 20 19 17 15 13 12 13 12 11 13 12 13 14 13 12 10 8 7 7 7 7 7
Wind_Direction
57 132 148 76 159 28 239 244 263 255 331 224 250 195 203 92 176 259 349 165 160 157 159 160 158 155 152 152 150 149 146 141 137 129 124 120 119 118 120 116 110 104 97 90 89 83 79 79 76
139 141 95 97 152 225 246 236 228 229 320 308 246 235 209 148 116 125 141 171 161 154 155 159 158 157 155 153 152 150 147 143 136 127 130 127 125 123 125 125 118 107 99 100 96 89 84 80 79
143 147 156 171 183 224 225 218 269 248 309 293 170 37 40 53 74 164 245 157 156 158 159 161 162 158 156 154 153 152 147 141 134 133 133 132 131 130 131 130 121 109 100 107 100 93 87 83 80
156 105 96 216 222 242 228 254 229 311 327 14 332 141 93 1 166 191 149 153 157 158 162 168 164 159 158 155 153 150 144 143 146 140 136 134 135 133 130 128 123 116 114 113 102 94 89 84 80
78 99 168 227 241 259 243 263 272 290 288 299 348 107 75 21 163 151 152 157 158 161 162 164 161 159 156 154 152 149 155 151 146 142 138 135 136 132 128 126 123 116 117 116 110 102 92 87 84
84 84 203 226 229 239 287 257 280 268 309 320 4 153 136 84 145 153 156 159 162 163 162 164 165 162 157 153 154 166 166 154 150 146 139 138 139 126 121 117 119 119 117 116 110 104 100 93 89
135 144 233 252 254 246 216 160 170 158 305 37 115 235 57 161 156 158 159 159 162 166 164 163 161 160 164 163 165 167 166 159 156 153 147 144 132 133 138 127 125 125 123 118 111 105 100 99 99
111 147 196 229 245 258 285 326 111 60 19 283 252 233 230 166 163 165 165 165 163 169 167 165 164 167 167 171 173 172 167 164 162 156 152 150 146 144 134 132 132 129 125 120 112 104 100 99 100
134 136 216 239 230 247 15 4 8 44 283 316 239 231 188 155 149 160 166 172 169 173 169 167 171 172 173 171 173 170 171 172 164 152 151 157 147 141 141 135 135 129 130 126 116 108 107 104 102
93 172 221 238 273 292 307 307 305 308 304 278 265 66 126 148 161 166 174 178 183 175 171 173 175 175 173 174 171 173 178 167 154 154 159 158 154 147 139 139 137 128 130 124 118 119 116 113 110
138 221 224 264 268 273 265 277 268 267 263 250 269 192 165 170 182 178 182 186 190 184 182 181 179 178 176 175 176 180 181 169 167 169 170 167 160 154 150 149 143 138 138 132 126 121 118 116 115
316 261 243 263 275 305 282 296 278 250 254 248 245 220 176 184 191 187 184 190 191 190 187 183 183 180 179 179 181 184 175 174 176 178 176 171 166 163 163 160 160 153 150 137 132 126 119 117 116
174 279 279 270 281 260 265 257 255 273 257 256 280 211 196 197 198 197 191 189 190 193 191 190 185 180 181 185 190 184 179 181 182 179 178 176 172 168 168 166 164 155 150 144 137 130 124 117 114
312 285 286 284 273 263 249 273 129 270 336 290 295 258 231 208 201 196 193 194 196 194 195 195 189 182 181 187 191 185 186 185 184 181 180 180 178 172 170 166 163 155 151 147 142 136 131 123 117
291 316 310 239 282 295 189 288 250 280 346 337 334 314 260 220 202 202 199 199 196 191 195 195 193 187 182 185 191 190 189 189 187 183 184 183 181 175 168 164 161 158 155 152 148 141 136 130 127
359 49 334 295 304 251 311 286 274 295 299 315 314 301 291 239 208 207 205 211 208 189 193 190 190 192 190 184 187 192 191 193 190 187 187 187 184 179 173 168 163 162 163 161 156 149 141 138 137
14 307 301 310 293 310 279 292 273 296 300 299 296 294 293 280 228 206 202 207 207 197 190 191 190 195 190 188 187 193 197 199 196 192 192 190 187 183 181 174 169 168 167 168 166 159 154 149 146
302 307 284 279 269 284 283 266 276 284 282 278 286 288 277 281 266 217 199 202 202 190 187 188 190 191 190 191 190 194 199 206 202 199 198 196 192 190 185 181 178 175 174 175 175 168 163 155 147
270 263 275 284 286 293 273 289 292 304 304 286 283 291 300 283 291 286 216 199 193 191 190 190 187 189 189 190 184 195 198 205 207 208 205 203 200 196 191 188 186 184 183 181 179 170 167 162 162
284 299 295 298 322 249 326 307 309 7 334 339 4 353 332 321 306 304 240 202 195 185 187 187 192 194 196 195 194 197 206 208 208 211 212 210 204 208 201 195 194 193 189 186 187 186 172 170 176
304 255 323 299 334 54 345 346 355 354 355 356 352 334 321 309 302 298 275 206 196 185 181 181 186 190 195 197 203 206 204 204 201 202 202 202 196 212 214 204 203 199 196 195 195 194 193 174 189
308 188 319 312 360 16 18 304 10 0 351 347 342 335 319 311 303 289 270 219 200 200 184 186 191 192 195 198 199 221 210 179 196 193 192 188 183 203 218 228 215 211 206 205 202 202 203 198 183
266 327 44 89 346 328 13 328 327 11 349 336 328 336 324 314 304 293 279 247 207 196 191 189 186 194 195 194 215 211 173 161 162 159 163 180 180 195 206 221 236 226 213 211 209 208 206 205 202
308 20 62 75 315 38 352 332 334 355 339 318 322 337 337 334 324 311 263 195 185 178 183 184 177 177 189 189 181 178 153 129 138 150 159 179 192 196 194 202 223 236 219 213 214 213 212 214 212
10 10 357 22 9 301 337 324 4 347 330 323 331 348 354 5 5 64 108 127 137 153 162 165 168 144 163 174 168 164 144 118 151 176 184 188 202 208 210 203 229 228 221 217 214 211 214 215 215
7 40 97 21 345 312 339 350 328 334 333 348 10 12 19 12 20 20 47 103 125 120 126 129 133 132 143 149 156 153 131 163 166 174 179 195 199 208 205 218 236 226 226 220 213 210 214 213 209
358 32 114 118 277 286 300 6 209 7 355 355 7 10 13 13 17 27 33 63 90 97 115 125 128 124 132 148 141 147 161 164 174 203 204 207 211 210 197 188 209 202 228 219 211 206 199 189 188
84 147 32 41 22 340 317 358 332 3 342 350 6 9 4 11 24 28 28 47 68 84 100 114 129 136 117 138 150 150 186 194 182 186 210 241 228 205 198 213 211 210 211 200 192 183 178 180 182
3 26 40 122 70 345 316 32 326 27 311 351 360 9 11 11 22 36 46 54 61 79 88 104 112 109 115 134 147 145 175 167 118 127 137 158 172 188 196 199 190 180 175 170 174 176 181 186 191
140 115 95 72 321 243 282 291 326 310 288 349 4 4 13 20 27 32 49 63 69 70 74 75 92 99 102 104 108 110 112 113 112 113 119 134 138 140 146 148 150 155 157 164 179 186 191 194 200